Location: Asheville, NC
(35.6000°N, 82.5500°W)
Time: 08:46:34
(UTC-05:00)

Vanguard 2 Rocket - Pass Details

Date: 13 February 2018
Orbit: 555 x 3327 km, 32.9° (Epoch: 19 February)

Event Time Altitude Azimuth Distance (km) Brightness Sun altitude
Rises 20:58:10 0° 171° (S) 5,007 10.5 -34.6°
Enters shadow 20:58:48 - 169° (S) 4,946 10.5 -34.8°
Reaches altitude 10° 21:04:57 10° 142° (SE) 4,727 - -36.0°
Maximum altitude 21:08:58 12° 125° (SE) 4,950 - -36.8°
Drops below altitude 10° 21:13:28 10° 108° (ESE) 5,457 - -37.7°
Sets 21:23:22 0° 83° (E) 7,054 - -39.6°
